Tracking 29892 objects as of 21-Nov-2024
HD Live streaming from Space Station
objects crossing your sky now

QIANFAN-8

Track QIANFAN-8 now!
10-day predictions


NORAD ID: 60386
Int'l Code: 2024-140H
Perigee: 955.4 km
Apogee: 973.6 km
Inclination: 89.0 °
Period: 104.2 minutes
Semi major axis: 7335 km
RCS: Unknown
Launch date: August 6, 2024
Source: People's Republic of China (PRC)
Launch site: Taiyaun Space Center, China (TSC)
Your satellite tracking list
Your tracking list is empty




NASA's NSSDC Master Catalog

Two Line Element Set (TLE):
1 60386U 24140H   24326.12462605  .00000116  00000-0  96528-4 0  9999
2 60386  88.9880 339.1291 0012396 238.0394 121.9570 13.81841876 15091
Source of the keplerian elements: AFSPC